SWA1748 KHOU-KDEN

Flight info

Callsign SWA1748
Flight time 2h 3m
Altitude 34000
Route STYCK8 DOLEY MRMAC ROLLS TOTOE HALEN NIIXX4
Aircraft B738/M-SDE2E3FGHIRWXY/LB1

Departure

Time 2026-05-03 22:32
Airport William P. Hobby Airport (KHOU)

Arrival

Time 2026-05-04 00:35
Airport Denver International Airport (KDEN)
Time Latitude Longitude Altitude Speed Heading
2026-05-03 21:59 29.65278 -95.27887 51 ft 0 kts 161°
2026-05-03 22:19 29.65292 -95.27892 48 ft 2 kts 161°
2026-05-03 22:20 29.65307 -95.27898 50 ft 2 kts 165°
2026-05-03 22:20 29.65323 -95.27903 49 ft 2 kts 202°
2026-05-03 22:20 29.65332 -95.27889 50 ft 1 kts 249°
2026-05-03 22:20 29.65332 -95.27888 50 ft 0 kts 249°
2026-05-03 22:26 29.65330 -95.27894 51 ft 5 kts 249°
2026-05-03 22:26 29.65306 -95.27950 50 ft 12 kts 231°
2026-05-03 22:27 29.65244 -95.27983 51 ft 11 kts 168°
2026-05-03 22:27 29.65193 -95.27932 48 ft 10 kts 130°
2026-05-03 22:27 29.65161 -95.27892 51 ft 7 kts 131°
2026-05-03 22:27 29.65142 -95.27788 51 ft 17 kts 91°
2026-05-03 22:28 29.65144 -95.27654 50 ft 15 kts 87°
2026-05-03 22:28 29.65147 -95.27535 50 ft 15 kts 89°
2026-05-03 22:28 29.65151 -95.27422 49 ft 14 kts 76°
2026-05-03 22:28 29.65215 -95.27338 49 ft 18 kts 44°
2026-05-03 22:29 29.65307 -95.27238 47 ft 18 kts 44°
2026-05-03 22:29 29.65392 -95.27144 46 ft 15 kts 44°
2026-05-03 22:29 29.65457 -95.27071 48 ft 12 kts 47°
2026-05-03 22:29 29.65480 -95.26986 48 ft 12 kts 99°
2026-05-03 22:30 29.65471 -95.26962 48 ft 1 kts 118°
2026-05-03 22:30 29.65470 -95.26959 46 ft 0 kts 118°
2026-05-03 22:30 29.65427 -95.26913 47 ft 17 kts 156°
2026-05-03 22:31 29.65361 -95.26932 47 ft 0 kts 221°
2026-05-03 22:31 29.65297 -95.27003 47 ft 51 kts 225°
2026-05-03 22:31 29.64889 -95.27453 49 ft 132 kts 224°
2026-05-03 22:32 29.64041 -95.28392 258 ft 193 kts 221°
2026-05-03 22:32 29.63107 -95.29457 1604 ft 185 kts 225°
2026-05-03 22:32 29.62169 -95.30491 2735 ft 198 kts 220°
2026-05-03 22:32 29.60860 -95.31228 3216 ft 224 kts 189°
2026-05-03 22:33 29.59254 -95.31031 3549 ft 242 kts 155°
2026-05-03 22:33 29.57960 -95.29869 4178 ft 243 kts 125°
2026-05-03 22:33 29.57353 -95.28090 4891 ft 240 kts 93°
2026-05-03 22:33 29.57624 -95.26216 5525 ft 240 kts 62°
2026-05-03 22:34 29.58703 -95.24776 6194 ft 247 kts 35°
2026-05-03 22:34 29.60359 -95.24072 6615 ft 264 kts
2026-05-03 22:34 29.62203 -95.23941 7480 ft 266 kts
2026-05-03 22:34 29.64061 -95.23864 8387 ft 269 kts
2026-05-03 22:35 29.65951 -95.23775 9244 ft 274 kts
2026-05-03 22:35 29.67867 -95.23656 10100 ft 278 kts
2026-05-03 22:35 29.69825 -95.23511 10541 ft 297 kts
2026-05-03 22:35 29.71979 -95.23348 10726 ft 323 kts
2026-05-03 22:36 29.74307 -95.23172 10902 ft 347 kts
2026-05-03 22:36 29.76782 -95.22987 11165 ft 365 kts
2026-05-03 22:36 29.79349 -95.22793 11693 ft 373 kts
2026-05-03 22:36 29.81951 -95.22589 12355 ft 377 kts
2026-05-03 22:37 29.84580 -95.22372 13001 ft 381 kts
2026-05-03 22:37 29.87244 -95.22137 13604 ft 387 kts
2026-05-03 22:37 29.89944 -95.21888 14189 ft 391 kts
2026-05-03 22:37 29.92666 -95.21621 14782 ft 394 kts
2026-05-03 22:38 29.95406 -95.21337 15377 ft 396 kts
2026-05-03 22:38 29.98163 -95.21039 15957 ft 399 kts
2026-05-03 22:38 30.00900 -95.20730 16513 ft 402 kts
2026-05-03 22:38 30.03693 -95.20403 17058 ft 405 kts
2026-05-03 22:39 30.06512 -95.20061 17602 ft 408 kts
2026-05-03 22:39 30.09342 -95.19706 18135 ft 411 kts
2026-05-03 22:39 30.12195 -95.19339 18620 ft 414 kts
2026-05-03 22:39 30.15069 -95.18960 19058 ft 417 kts
2026-05-03 22:40 30.17964 -95.18567 19490 ft 420 kts
2026-05-03 22:40 30.20873 -95.18162 19933 ft 423 kts
2026-05-03 22:40 30.23804 -95.17742 20358 ft 426 kts
2026-05-03 22:40 30.26715 -95.17313 20766 ft 429 kts
2026-05-03 22:41 30.29685 -95.16863 21166 ft 432 kts
2026-05-03 22:41 30.32674 -95.16402 21578 ft 435 kts
2026-05-03 22:41 30.35683 -95.15928 21985 ft 438 kts
2026-05-03 22:41 30.38707 -95.15441 22380 ft 440 kts
2026-05-03 22:42 30.41754 -95.14941 22772 ft 443 kts
2026-05-03 22:42 30.44813 -95.14426 23146 ft 446 kts
2026-05-03 22:42 30.47891 -95.13899 23508 ft 449 kts
2026-05-03 22:42 30.50990 -95.13358 23847 ft 451 kts
2026-05-03 22:43 30.54102 -95.12806 24167 ft 453 kts
2026-05-03 22:43 30.57222 -95.12243 24490 ft 455 kts
2026-05-03 22:43 30.60315 -95.11678 24730 ft 458 kts
2026-05-03 22:43 30.63475 -95.11098 24977 ft 461 kts
2026-05-03 22:44 30.66652 -95.10512 25274 ft 463 kts
2026-05-03 22:44 30.69833 -95.10154 25497 ft 455 kts 351°
2026-05-03 22:44 30.72920 -95.10669 25748 ft 443 kts 338°
2026-05-03 22:44 30.75782 -95.11887 26052 ft 434 kts 327°
2026-05-03 22:45 30.78298 -95.13746 26319 ft 427 kts 317°
2026-05-03 22:45 30.80659 -95.15839 26592 ft 428 kts 317°
2026-05-03 22:45 30.83027 -95.17948 26837 ft 429 kts 317°
2026-05-03 22:45 30.85372 -95.20030 27079 ft 431 kts 317°
2026-05-03 22:46 30.87762 -95.22140 27341 ft 432 kts 317°
2026-05-03 22:46 30.90159 -95.24245 27691 ft 431 kts 317°
2026-05-03 22:46 30.92546 -95.26332 28107 ft 428 kts 317°
2026-05-03 22:46 30.94923 -95.28406 28537 ft 426 kts 317°
2026-05-03 22:47 30.97289 -95.30471 28924 ft 424 kts 317°
2026-05-03 22:47 30.99647 -95.32531 29303 ft 423 kts 317°
2026-05-03 22:47 31.01998 -95.34584 29746 ft 421 kts 317°
2026-05-03 22:47 31.04338 -95.36630 30182 ft 419 kts 317°
2026-05-03 22:48 31.06670 -95.38670 30512 ft 418 kts 317°
2026-05-03 22:48 31.08961 -95.40676 30875 ft 417 kts 317°
2026-05-03 22:48 31.11271 -95.42700 31256 ft 414 kts 316°
2026-05-03 22:48 31.13566 -95.44711 31644 ft 412 kts 316°
2026-05-03 22:49 31.15859 -95.46723 31960 ft 411 kts 316°
2026-05-03 22:49 31.18139 -95.48725 32331 ft 409 kts 316°
2026-05-03 22:49 31.20407 -95.50717 32735 ft 407 kts 316°
2026-05-03 22:49 31.22665 -95.52702 33104 ft 405 kts 315°
2026-05-03 22:50 31.24918 -95.54684 33408 ft 405 kts 315°
2026-05-03 22:50 31.27165 -95.56662 33749 ft 404 kts 315°
2026-05-03 22:50 31.29378 -95.58612 33981 ft 404 kts 315°
2026-05-03 22:51 31.33880 -95.62583 33976 ft 405 kts 315°
2026-05-03 22:51 31.38362 -95.66537 33989 ft 403 kts 315°
2026-05-03 22:52 31.42830 -95.70484 33987 ft 402 kts 315°
2026-05-03 22:52 31.47290 -95.74430 33984 ft 401 kts 315°
2026-05-03 22:53 31.51746 -95.78378 33988 ft 402 kts 315°
2026-05-03 22:53 31.56176 -95.82307 33980 ft 403 kts 315°
2026-05-03 22:54 31.60653 -95.86283 33984 ft 404 kts 315°
2026-05-03 22:54 31.65141 -95.90274 33982 ft 406 kts 315°
2026-05-03 22:55 31.69647 -95.94284 33979 ft 407 kts 315°
2026-05-03 22:55 31.74136 -95.98284 33988 ft 408 kts 315°
2026-05-03 22:56 31.78667 -96.02327 33989 ft 409 kts 315°
2026-05-03 22:56 31.83205 -96.06382 33983 ft 410 kts 315°
2026-05-03 22:57 31.87752 -96.10449 33984 ft 411 kts 315°
2026-05-03 22:57 31.92302 -96.14524 33983 ft 411 kts 315°
2026-05-03 22:58 31.96826 -96.18582 33981 ft 412 kts 315°
2026-05-03 22:58 32.01380 -96.22671 33987 ft 412 kts 315°
2026-05-03 22:59 32.05933 -96.26766 33983 ft 412 kts 315°
2026-05-03 22:59 32.10486 -96.30866 33963 ft 412 kts 315°
2026-05-03 23:00 32.15007 -96.34941 33968 ft 412 kts 315°
2026-05-03 23:00 32.19629 -96.38961 33972 ft 417 kts 321°
2026-05-03 23:01 32.24780 -96.42241 33970 ft 421 kts 324°
2026-05-03 23:01 32.29973 -96.45462 33974 ft 422 kts 324°
2026-05-03 23:02 32.35164 -96.48707 33967 ft 422 kts 324°
2026-05-03 23:02 32.40317 -96.51952 33952 ft 423 kts 324°
2026-05-03 23:03 32.45505 -96.55231 33945 ft 422 kts 324°
2026-05-03 23:03 32.50686 -96.58510 33948 ft 422 kts 324°
2026-05-03 23:04 32.55860 -96.61790 33942 ft 422 kts 324°
2026-05-03 23:04 32.60999 -96.65052 33936 ft 422 kts 324°
2026-05-03 23:05 32.66165 -96.68335 33942 ft 421 kts 324°
2026-05-03 23:05 32.71328 -96.71620 33931 ft 421 kts 324°
2026-05-03 23:06 32.76481 -96.74904 33928 ft 420 kts 324°
2026-05-03 23:06 32.81627 -96.78187 33931 ft 420 kts 324°
2026-05-03 23:07 32.86733 -96.81450 33924 ft 419 kts 324°
2026-05-03 23:07 32.91862 -96.84731 33948 ft 418 kts 324°
2026-05-03 23:08 32.96984 -96.88012 33943 ft 418 kts 324°
2026-05-03 23:08 33.02100 -96.91294 33953 ft 417 kts 324°
2026-05-03 23:09 33.07175 -96.94553 33942 ft 416 kts 324°
2026-05-03 23:09 33.12269 -96.97830 33933 ft 416 kts 324°
2026-05-03 23:10 33.17357 -97.01106 33922 ft 415 kts 324°
2026-05-03 23:10 33.22434 -97.04380 33916 ft 415 kts 324°
2026-05-03 23:11 33.27471 -97.07633 33918 ft 414 kts 324°
2026-05-03 23:11 33.32538 -97.10908 33674 ft 418 kts 324°
2026-05-03 23:12 33.37611 -97.14184 33822 ft 412 kts 324°
2026-05-03 23:12 33.42648 -97.17454 33911 ft 412 kts 324°
2026-05-03 23:13 33.47668 -97.20719 33924 ft 414 kts 324°
2026-05-03 23:13 33.52743 -97.24020 33926 ft 416 kts 324°
2026-05-03 23:14 33.57829 -97.27330 33927 ft 416 kts 324°
2026-05-03 23:14 33.62912 -97.30642 33925 ft 416 kts 324°
2026-05-03 23:15 33.67992 -97.33956 33925 ft 415 kts 324°
2026-05-03 23:15 33.73021 -97.37242 33918 ft 414 kts 324°
2026-05-03 23:16 33.78079 -97.40552 33914 ft 413 kts 324°
2026-05-03 23:16 33.83124 -97.43859 33900 ft 413 kts 324°
2026-05-03 23:17 33.88162 -97.47165 33893 ft 412 kts 324°
2026-05-03 23:17 33.93154 -97.50445 33887 ft 411 kts 324°
2026-05-03 23:18 33.98170 -97.53745 33879 ft 410 kts 324°
2026-05-03 23:18 34.03177 -97.57045 33877 ft 410 kts 324°
2026-05-03 23:19 34.08180 -97.60346 33871 ft 410 kts 324°
2026-05-03 23:19 34.13147 -97.63628 33869 ft 410 kts 324°
2026-05-03 23:20 34.18143 -97.66933 33870 ft 409 kts 324°
2026-05-03 23:20 34.23140 -97.70244 33868 ft 410 kts 324°
2026-05-03 23:21 34.28147 -97.73567 33872 ft 411 kts 324°
2026-05-03 23:21 34.33168 -97.76903 33876 ft 412 kts 325°
2026-05-03 23:22 34.40699 -97.81915 33879 ft 415 kts 325°
2026-05-03 23:22 34.45769 -97.85294 33877 ft 417 kts 325°
2026-05-03 23:23 34.50856 -97.88689 33884 ft 418 kts 325°
2026-05-03 23:23 34.55923 -97.92076 33880 ft 419 kts 326°
2026-05-03 23:24 34.61034 -97.95497 33872 ft 420 kts 326°
2026-05-03 23:24 34.66159 -97.98932 33863 ft 421 kts 326°
2026-05-03 23:25 34.71295 -98.02381 33852 ft 422 kts 326°
2026-05-03 23:25 34.76445 -98.05843 33834 ft 424 kts 326°
2026-05-03 23:26 34.81561 -98.09323 33824 ft 423 kts 323°
2026-05-03 23:26 34.86050 -98.13859 33809 ft 418 kts 309°
2026-05-03 23:27 34.89705 -98.19357 33804 ft 418 kts 306°
2026-05-03 23:27 34.93314 -98.24916 33801 ft 418 kts 306°
2026-05-03 23:28 34.96914 -98.30431 33806 ft 419 kts 306°
2026-05-03 23:28 35.00549 -98.35979 33800 ft 419 kts 306°
2026-05-03 23:29 35.04185 -98.41526 33804 ft 419 kts 307°
2026-05-03 23:29 35.07824 -98.47085 33799 ft 419 kts 306°
2026-05-03 23:30 35.11460 -98.52648 33807 ft 419 kts 307°
2026-05-03 23:30 35.15067 -98.58177 33800 ft 419 kts 306°
2026-05-03 23:31 35.18691 -98.63740 33801 ft 418 kts 306°
2026-05-03 23:31 35.22310 -98.69305 33811 ft 418 kts 306°
2026-05-03 23:32 35.25927 -98.74874 33803 ft 418 kts 306°
2026-05-03 23:32 35.29513 -98.80406 33805 ft 417 kts 306°
2026-05-03 23:33 35.33117 -98.85975 33806 ft 417 kts 306°
2026-05-03 23:33 35.36718 -98.91547 33807 ft 417 kts 306°
2026-05-03 23:34 35.40311 -98.97115 33812 ft 416 kts 306°
2026-05-03 23:34 35.43899 -99.02686 33817 ft 416 kts 306°
2026-05-03 23:35 35.47458 -99.08219 33815 ft 416 kts 306°
2026-05-03 23:35 35.51038 -99.13794 33809 ft 415 kts 306°
2026-05-03 23:36 35.54609 -99.19365 33784 ft 415 kts 306°
2026-05-03 23:36 35.58153 -99.24903 33784 ft 415 kts 306°
2026-05-03 23:37 35.61716 -99.30479 33787 ft 415 kts 306°
2026-05-03 23:37 35.65274 -99.36057 33782 ft 414 kts 306°
2026-05-03 23:38 35.68829 -99.41638 33770 ft 414 kts 306°
2026-05-03 23:38 35.72420 -99.47169 33770 ft 414 kts 309°
2026-05-03 23:39 35.76623 -99.51992 33765 ft 416 kts 315°
2026-05-03 23:39 35.80947 -99.56732 33758 ft 416 kts 315°
2026-05-03 23:40 35.85257 -99.61491 33756 ft 416 kts 315°
2026-05-03 23:40 35.89509 -99.66210 33698 ft 403 kts 313°
2026-05-03 23:41 35.93611 -99.70781 33713 ft 399 kts 313°
2026-05-03 23:41 35.97724 -99.75382 33724 ft 399 kts 313°
2026-05-03 23:42 36.01841 -99.79991 33728 ft 400 kts 313°
2026-05-03 23:42 36.05967 -99.84614 33724 ft 401 kts 313°
2026-05-03 23:43 36.10071 -99.89220 33723 ft 402 kts 313°
2026-05-03 23:43 36.14215 -99.93877 33726 ft 403 kts 313°
2026-05-03 23:44 36.18371 -99.98553 33729 ft 404 kts 313°
2026-05-03 23:44 36.22528 -100.03237 33722 ft 404 kts 313°
2026-05-03 23:45 36.26661 -100.07902 33713 ft 405 kts 313°
2026-05-03 23:45 36.30658 -100.12421 33706 ft 405 kts 313°
2026-05-03 23:46 36.34795 -100.17104 33697 ft 405 kts 313°
2026-05-03 23:46 36.38417 -100.21210 33688 ft 406 kts 313°
2026-05-03 23:47 36.42586 -100.25943 33688 ft 406 kts 313°
2026-05-03 23:47 36.46762 -100.30691 33683 ft 407 kts 313°
2026-05-03 23:48 36.50908 -100.35412 33688 ft 407 kts 313°
2026-05-03 23:48 36.55088 -100.40179 33690 ft 408 kts 313°
2026-05-03 23:49 36.59267 -100.44952 33696 ft 408 kts 313°
2026-05-03 23:49 36.63448 -100.49736 33696 ft 408 kts 313°
2026-05-03 23:50 36.66924 -100.53718 33686 ft 409 kts 313°
2026-05-03 23:50 36.71788 -100.59299 33689 ft 409 kts 313°
2026-05-03 23:51 36.75978 -100.64114 33676 ft 410 kts 313°
2026-05-03 23:51 36.80168 -100.68937 33679 ft 410 kts 313°
2026-05-03 23:52 36.84359 -100.73769 33685 ft 410 kts 313°
2026-05-03 23:52 36.88522 -100.78576 33694 ft 410 kts 313°
2026-05-03 23:53 36.92715 -100.83426 33702 ft 411 kts 313°
2026-05-03 23:53 36.96908 -100.88284 33714 ft 411 kts 313°
2026-05-03 23:54 37.01104 -100.93152 33712 ft 412 kts 313°
2026-05-03 23:54 37.05215 -100.98064 33706 ft 410 kts 308°
2026-05-03 23:55 37.08936 -101.03454 33709 ft 409 kts 307°
2026-05-03 23:55 37.12632 -101.08886 33699 ft 410 kts 307°
2026-05-03 23:56 37.16340 -101.14321 33674 ft 411 kts 307°
2026-05-03 23:56 37.20035 -101.19725 33677 ft 411 kts 307°
2026-05-03 23:57 37.23757 -101.25171 33681 ft 411 kts 307°
2026-05-03 23:57 37.27479 -101.30625 33681 ft 411 kts 307°
2026-05-03 23:58 37.31198 -101.36084 33668 ft 411 kts 307°
2026-05-03 23:58 37.34916 -101.41550 33664 ft 412 kts 307°
2026-05-03 23:59 37.38611 -101.46992 33650 ft 412 kts 307°
2026-05-03 23:59 37.42328 -101.52476 33642 ft 412 kts 307°
2026-05-04 00:00 37.46046 -101.57970 33663 ft 412 kts 307°
2026-05-04 00:00 37.49761 -101.63470 33678 ft 412 kts 307°
2026-05-04 00:01 37.53472 -101.68972 33687 ft 412 kts 307°
2026-05-04 00:01 37.57160 -101.74449 33689 ft 412 kts 307°
2026-05-04 00:02 37.60867 -101.79964 33684 ft 412 kts 307°
2026-05-04 00:02 37.64575 -101.85490 33672 ft 412 kts 307°
2026-05-04 00:03 37.68281 -101.91023 33663 ft 413 kts 307°
2026-05-04 00:03 37.71960 -101.96524 33636 ft 413 kts 307°
2026-05-04 00:04 37.73807 -101.99290 33793 ft 410 kts 307°
2026-05-04 00:04 37.75652 -102.02055 33450 ft 418 kts 307°
2026-05-04 00:04 37.77535 -102.04882 32923 ft 420 kts 307°
2026-05-04 00:04 37.79409 -102.07694 32518 ft 417 kts 307°
2026-05-04 00:05 37.81275 -102.10495 32213 ft 417 kts 307°
2026-05-04 00:05 37.83152 -102.13314 31938 ft 421 kts 307°
2026-05-04 00:05 37.85103 -102.16090 31687 ft 423 kts 309°
2026-05-04 00:05 37.87119 -102.18819 31438 ft 425 kts 310°
2026-05-04 00:06 37.89129 -102.21497 31193 ft 427 kts 310°
2026-05-04 00:06 37.91177 -102.24223 30948 ft 428 kts 310°
2026-05-04 00:06 37.93225 -102.26964 30704 ft 429 kts 310°
2026-05-04 00:06 37.95271 -102.29720 30471 ft 430 kts 310°
2026-05-04 00:07 37.97318 -102.32489 30240 ft 431 kts 310°
2026-05-04 00:07 37.99366 -102.35270 30019 ft 432 kts 310°
2026-05-04 00:07 38.01421 -102.38064 29768 ft 433 kts 310°
2026-05-04 00:07 38.03475 -102.40861 29497 ft 434 kts 310°
2026-05-04 00:08 38.05538 -102.43672 29230 ft 435 kts 310°
2026-05-04 00:08 38.07573 -102.46448 28966 ft 436 kts 310°
2026-05-04 00:08 38.09644 -102.49274 28702 ft 438 kts 310°
2026-05-04 00:08 38.11718 -102.52107 28442 ft 439 kts 310°
2026-05-04 00:09 38.13798 -102.54951 28175 ft 440 kts 310°
2026-05-04 00:09 38.15879 -102.57798 27917 ft 441 kts 310°
2026-05-04 00:09 38.17967 -102.60658 27654 ft 442 kts 310°
2026-05-04 00:09 38.20059 -102.63525 27395 ft 443 kts 310°
2026-05-04 00:10 38.22156 -102.66402 27136 ft 444 kts 310°
2026-05-04 00:10 38.24228 -102.69247 26878 ft 445 kts 310°
2026-05-04 00:10 38.26332 -102.72138 26622 ft 446 kts 310°
2026-05-04 00:10 38.28441 -102.75039 26367 ft 447 kts 310°
2026-05-04 00:11 38.30555 -102.77950 26112 ft 448 kts 310°
2026-05-04 00:11 38.32675 -102.80872 25857 ft 449 kts 310°
2026-05-04 00:11 38.34793 -102.83793 25608 ft 450 kts 310°
2026-05-04 00:11 38.36916 -102.86724 25358 ft 450 kts 310°
2026-05-04 00:12 38.39035 -102.89652 25114 ft 449 kts 310°
2026-05-04 00:12 38.41150 -102.92578 24871 ft 448 kts 310°
2026-05-04 00:12 38.43255 -102.95493 24640 ft 446 kts 310°
2026-05-04 00:12 38.45325 -102.98361 24411 ft 444 kts 310°
2026-05-04 00:13 38.47412 -103.01256 24178 ft 442 kts 310°
2026-05-04 00:13 38.49491 -103.04142 23947 ft 441 kts 310°
2026-05-04 00:13 38.51561 -103.07019 23717 ft 439 kts 310°
2026-05-04 00:13 38.53621 -103.09885 23492 ft 437 kts 310°
2026-05-04 00:14 38.55672 -103.12742 23250 ft 436 kts 310°
2026-05-04 00:14 38.57720 -103.15595 22976 ft 435 kts 310°
2026-05-04 00:14 38.59762 -103.18444 22706 ft 434 kts 310°
2026-05-04 00:14 38.61769 -103.21247 22449 ft 433 kts 310°
2026-05-04 00:15 38.63800 -103.24085 22184 ft 432 kts 310°
2026-05-04 00:15 38.65827 -103.26920 21924 ft 432 kts 310°
2026-05-04 00:15 38.67850 -103.29752 21668 ft 431 kts 310°
2026-05-04 00:15 38.69870 -103.32583 21412 ft 430 kts 310°
2026-05-04 00:16 38.71884 -103.35408 21160 ft 430 kts 310°
2026-05-04 00:16 38.73897 -103.38235 20904 ft 429 kts 310°
2026-05-04 00:16 38.75910 -103.41063 20662 ft 429 kts 310°
2026-05-04 00:16 38.77918 -103.43886 20411 ft 428 kts 310°
2026-05-04 00:17 38.79923 -103.46709 20169 ft 428 kts 310°
2026-05-04 00:17 38.81898 -103.49490 19926 ft 428 kts 310°
2026-05-04 00:17 38.83898 -103.52314 19679 ft 427 kts 310°
2026-05-04 00:17 38.85894 -103.55136 19453 ft 427 kts 310°
2026-05-04 00:18 38.87886 -103.57957 19213 ft 427 kts 310°
2026-05-04 00:18 38.89878 -103.60780 19063 ft 426 kts 310°
2026-05-04 00:18 38.91862 -103.63596 19027 ft 425 kts 310°
2026-05-04 00:18 38.93840 -103.66404 19035 ft 423 kts 310°
2026-05-04 00:19 38.95812 -103.69206 19045 ft 423 kts 310°
2026-05-04 00:19 38.97786 -103.72013 19050 ft 423 kts 310°
2026-05-04 00:19 38.99759 -103.74822 19057 ft 423 kts 310°
2026-05-04 00:19 39.01705 -103.77594 19061 ft 423 kts 310°
2026-05-04 00:20 39.03673 -103.80401 19070 ft 423 kts 310°
2026-05-04 00:20 39.05639 -103.83207 19072 ft 422 kts 310°
2026-05-04 00:20 39.07605 -103.86016 19077 ft 422 kts 310°
2026-05-04 00:20 39.09566 -103.88819 19075 ft 422 kts 310°
2026-05-04 00:21 39.11527 -103.91625 19069 ft 421 kts 310°
2026-05-04 00:21 39.13484 -103.94434 19072 ft 422 kts 310°
2026-05-04 00:21 39.15436 -103.97260 19068 ft 422 kts 310°
2026-05-04 00:21 39.17382 -104.00089 19057 ft 422 kts 310°
2026-05-04 00:22 39.19306 -104.02892 18723 ft 425 kts 310°
2026-05-04 00:22 39.21259 -104.05736 18074 ft 421 kts 310°
2026-05-04 00:22 39.23182 -104.08538 17431 ft 413 kts 310°
2026-05-04 00:22 39.25072 -104.11291 16743 ft 407 kts 310°
2026-05-04 00:23 39.26936 -104.14009 16082 ft 401 kts 310°
2026-05-04 00:23 39.28768 -104.16690 15459 ft 395 kts 309°
2026-05-04 00:23 39.30204 -104.19623 15178 ft 380 kts 292°
2026-05-04 00:23 39.30928 -104.22821 15080 ft 363 kts 282°
2026-05-04 00:24 39.31410 -104.25955 14916 ft 350 kts 281°
2026-05-04 00:24 39.31860 -104.29019 14594 ft 344 kts 281°
2026-05-04 00:24 39.32302 -104.31975 14320 ft 337 kts 281°
2026-05-04 00:24 39.32753 -104.34912 14042 ft 330 kts 282°
2026-05-04 00:25 39.33206 -104.37794 13746 ft 325 kts 282°
2026-05-04 00:25 39.33657 -104.40640 13417 ft 321 kts 282°
2026-05-04 00:25 39.34102 -104.43453 13102 ft 317 kts 282°
2026-05-04 00:25 39.34538 -104.46218 12796 ft 312 kts 282°
2026-05-04 00:26 39.34968 -104.48954 12513 ft 309 kts 282°
2026-05-04 00:26 39.35385 -104.51617 12236 ft 305 kts 282°
2026-05-04 00:26 39.35801 -104.54279 12003 ft 300 kts 282°
2026-05-04 00:26 39.36210 -104.56900 11764 ft 296 kts 282°
2026-05-04 00:27 39.36725 -104.59464 11519 ft 293 kts 294°
2026-05-04 00:27 39.37715 -104.61733 11309 ft 288 kts 302°
2026-05-04 00:27 39.38913 -104.63776 11066 ft 285 kts 318°
2026-05-04 00:27 39.40547 -104.65186 10865 ft 281 kts 331°
2026-05-04 00:28 39.42304 -104.66271 10631 ft 279 kts 342°
2026-05-04 00:28 39.44196 -104.66604 10437 ft 278 kts 357°
2026-05-04 00:28 39.46127 -104.66563 10212 ft 277 kts 360°
2026-05-04 00:28 39.48048 -104.66482 9994 ft 275 kts 359°
2026-05-04 00:29 39.49941 -104.66453 9809 ft 269 kts 359°
2026-05-04 00:29 39.51781 -104.66416 9567 ft 260 kts 359°
2026-05-04 00:29 39.53562 -104.66384 9315 ft 252 kts 358°
2026-05-04 00:29 39.55293 -104.66361 9082 ft 245 kts 358°
2026-05-04 00:30 39.56983 -104.66344 8904 ft 241 kts 358°
2026-05-04 00:30 39.58659 -104.66327 8707 ft 241 kts 358°
2026-05-04 00:30 39.60324 -104.66306 8570 ft 238 kts 358°
2026-05-04 00:30 39.61970 -104.66287 8392 ft 236 kts 358°
2026-05-04 00:31 39.63585 -104.66270 8239 ft 235 kts 358°
2026-05-04 00:31 39.65211 -104.66251 8065 ft 233 kts 358°
2026-05-04 00:31 39.66822 -104.66234 7904 ft 230 kts 358°
2026-05-04 00:31 39.68412 -104.66216 7751 ft 228 kts 358°
2026-05-04 00:32 39.69990 -104.66198 7595 ft 222 kts 357°
2026-05-04 00:32 39.71493 -104.66180 7438 ft 209 kts 357°
2026-05-04 00:32 39.72905 -104.66163 7290 ft 198 kts 357°
2026-05-04 00:32 39.74251 -104.66148 7117 ft 189 kts 358°
2026-05-04 00:33 39.75525 -104.66134 6940 ft 183 kts 357°
2026-05-04 00:33 39.77962 -104.66107 6505 ft 166 kts 357°
2026-05-04 00:33 39.79108 -104.66095 6288 ft 163 kts 357°
2026-05-04 00:34 39.80224 -104.66084 6048 ft 157 kts 357°
2026-05-04 00:34 39.80922 -104.66074 5966 ft 146 kts 358°
2026-05-04 00:34 39.81876 -104.66069 5699 ft 126 kts 356°
2026-05-04 00:34 39.82951 -104.66055 5451 ft 108 kts 356°
2026-05-04 00:35 39.83602 -104.66049 5413 ft 76 kts
2026-05-04 00:35 39.83937 -104.66041 5413 ft 0 kts
2026-05-04 00:35 39.84055 -104.66041 5414 ft 42 kts 359°
2026-05-04 00:35 39.84366 -104.66050 5414 ft 39 kts 346°
2026-05-04 00:36 39.84613 -104.66056 5406 ft 35 kts 358°
2026-05-04 00:36 39.84768 -104.66087 5400 ft 33 kts 343°
2026-05-04 00:36 39.84968 -104.66200 5401 ft 30 kts 335°
2026-05-04 00:36 39.85149 -104.66246 5396 ft 24 kts 351°
2026-05-04 00:37 39.85207 -104.66384 5399 ft 14 kts 273°
2026-05-04 00:37 39.85231 -104.66630 5386 ft 40 kts 283°
2026-05-04 00:37 39.85304 -104.66889 5389 ft 7 kts 336°
2026-05-04 00:37 39.85330 -104.66895 5389 ft 5 kts 359°
2026-05-04 00:38 39.85334 -104.66896 5389 ft 0 kts 359°